EW9451 Weather Reports


Display with metric or nautical units.
time (UTC)temp
F
wind
direction
speed
MPH
gust
MPH
rain 1hr
in
rain 24hr
in
rain mn
in
humidity
%
barometer
mb
20260901211520 72 137 0.0 2.0 0.00 0.00 0.00 78 1010.6
20260901211018 72 129 0.0 2.0 0.00 0.00 0.00 77 1010.6
20260901210517 72 175 0.0 1.0 0.00 0.00 0.00 76 1010.6
20260901210024 73 223 0.0 2.0 0.00 0.00 0.00 75 1010.7
20260901205517 73 226 0.0 3.0 0.00 0.00 0.00 73 1010.7
20260901205021 73 179 1.0 3.0 0.00 0.00 0.00 73 1010.5
20260901204520 74 178 0.0 0.0 0.00 0.00 0.00 73 1010.4
20260901204016 74 178 0.0 0.0 0.00 0.00 0.00 75 1010.3
20260901203516 74 178 0.0 1.0 0.00 0.00 0.00 74 1010.2
20260901203016 74 178 0.0 3.0 0.00 0.00 0.00 72 1010.2
20260901202516 75 167 0.0 3.0 0.00 0.00 0.00 73 1010.1
20260901202016 75 159 0.0 3.0 0.00 0.00 0.00 73 1010.1
20260901201514 75 169 0.0 3.0 0.00 0.00 0.00 72 1010.1
20260901201014 75 209 0.0 2.0 0.00 0.00 0.00 72 1010.1
20260901200514 75 128 0.0 1.0 0.00 0.00 0.00 73 1010.0
20260901200033 75 137 0.0 3.0 0.00 0.00 0.00 71 1010.0
20260901195513 75 130 0.0 3.0 0.00 0.00 0.00 73 1010.0
20260901195012 75 117 0.0 3.0 0.00 0.00 0.00 70 1010.2
20260901194510 75 175 0.0 1.0 0.00 0.00 0.00 70 1010.2
20260901194013 75 198 0.0 3.0 0.00 0.00 0.00 70 1010.3
20260901193509 76 275 1.0 3.0 0.00 0.00 0.00 70 1010.3
20260901193008 76 254 0.0 2.0 0.00 0.00 0.00 69 1010.3
20260901192508 77 198 0.0 1.0 0.00 0.00 0.00 66 1010.3
20260901192008 77 153 0.0 3.0 0.00 0.00 0.00 65 1010.3
20260901191517 78 153 0.0 4.0 0.00 0.00 0.00 65 1010.4
20260901191008 78 167 1.0 6.0 0.00 0.00 0.00 64 1010.4
20260901190507 78 126 0.0 6.0 0.00 0.00 0.00 65 1010.3
20260901190006 77 136 0.0 5.0 0.00 0.00 0.00 66 1010.4
20260901185506 77 150 0.0 5.0 0.00 0.00 0.00 67 1010.4
20260901185005 76 148 2.0 6.0 0.00 0.00 0.00 64 1010.4
20260901184507 76 113 0.0 4.0 0.00 0.00 0.00 66 1010.4
20260901184005 77 60 1.0 4.0 0.00 0.00 0.00 64 1010.4
20260901183505 77 217 0.0 7.0 0.00 0.00 0.00 61 1010.4
20260901183005 78 145 2.0 7.0 0.00 0.00 0.00 58 1010.5
20260901182504 78 95 0.0 5.0 0.00 0.00 0.00 66 1010.6
20260901182004 78 159 2.0 5.0 0.00 0.00 0.00 64 1010.7
20260901181504 78 263 0.0 6.0 0.00 0.00 0.00 60 1010.6
20260901181003 78 95 0.0 8.0 0.00 0.00 0.00 61 1010.5
20260901180503 78 114 1.0 8.0 0.00 0.00 0.00 58 1010.5
20260901180003 78 142 1.0 4.0 0.00 0.00 0.00 55 1010.5
20260901175502 78 117 1.0 4.0 0.00 0.00 0.00 56 1010.4
20260901175101 77 332 1.0 4.0 0.00 0.00 0.00 58 1010.4
20260901174600 77 84 0.0 6.0 0.00 0.00 0.00 57 1010.4
20260901174100 77 339 1.0 6.0 0.00 0.00 0.00 59 1010.4
20260901173600 77 283 1.0 5.0 0.00 0.00 0.00 60 1010.4
20260901173107 77 360 1.0 7.0 0.00 0.00 0.00 54 1010.4
20260901172559 76 167 3.0 7.0 0.00 0.00 0.00 57 1010.4
20260901172058 76 148 1.0 5.0 0.00 0.00 0.00 55 1010.5
20260901171603 76 283 2.0 5.0 0.00 0.00 0.00 61 1010.4
20260901171057 76 339 2.0 5.0 0.00 0.00 0.00 58 1010.5
20260901170557 76 317 0.0 6.0 0.00 0.00 0.00 56 1010.5
20260901170100 76 311 2.0 6.0 0.00 0.00 0.00 56 1010.6
20260901165555 76 303 3.0 7.0 0.00 0.00 0.00 57 1010.6
20260901165055 77 228 1.0 5.0 0.00 0.00 0.00 60 1010.6
20260901164613 77 150 0.0 7.0 0.00 0.00 0.00 56 1010.7
20260901164053 77 143 2.0 7.0 0.00 0.00 0.00 55 1010.7
20260901163552 77 160 2.0 7.0 0.00 0.00 0.00 58 1010.8
20260901163051 77 144 3.0 7.0 0.00 0.00 0.00 54 1010.8
20260901162549 76 174 3.0 8.0 0.00 0.00 0.00 55 1010.8
20260901162049 76 148 2.0 8.0 0.00 0.00 0.00 58 1010.8
20260901161551 76 216 1.0 8.0 0.00 0.00 0.00 61 1010.8
20260901161049 76 113 1.0 5.0 0.00 0.00 0.00 62 1010.8
20260901160545 75 267 1.0 5.0 0.00 0.00 0.00 62 1010.8
20260901160105 75 82 1.0 7.0 0.00 0.00 0.00 63 1010.7
20260901155544 74 142 2.0 7.0 0.00 0.00 0.00 60 1010.8
20260901155045 74 193 1.0 7.0 0.00 0.00 0.00 62 1010.8
20260901154544 74 121 1.0 6.0 0.00 0.00 0.00 63 1010.9
20260901154045 74 141 1.0 11.0 0.00 0.00 0.00 60 1011.0
20260901153545 74 117 2.0 11.0 0.00 0.00 0.00 55 1010.9
20260901153055 75 231 0.0 6.0 0.00 0.00 0.00 59 1010.8
20260901152542 74 103 1.0 4.0 0.00 0.00 0.00 63 1010.9
20260901152041 74 82 1.0 4.0 0.00 0.00 0.00 63 1010.8
20260901151543 74 90 1.0 7.0 0.00 0.00 0.00 57 1010.9
20260901151039 73 24 0.0 7.0 0.00 0.00 0.00 62 1011.0
20260901150538 73 148 1.0 6.0 0.00 0.00 0.00 60 1011.0
20260901150042 72 51 0.0 6.0 0.00 0.00 0.00 64 1011.0
20260901145536 72 157 2.0 6.0 0.00 0.00 0.00 57 1011.1
20260901145034 72 164 2.0 5.0 0.00 0.00 0.00 67 1011.0
20260901144540 72 78 0.0 7.0 0.00 0.00 0.00 70 1011.0
20260901144032 71 131 2.0 7.0 0.00 0.00 0.00 68 1010.8
20260901143531 71 113 1.0 7.0 0.00 0.00 0.00 73 1010.8
20260901143030 70 126 0.0 5.0 0.00 0.00 0.00 73 1010.7
20260901142528 70 132 2.0 6.0 0.00 0.00 0.00 74 1010.8
20260901142027 69 138 2.0 6.0 0.00 0.00 0.00 68 1010.9
20260901141526 68 104 0.0 3.0 0.00 0.00 0.00 74 1010.9
20260901141025 68 161 0.0 4.0 0.00 0.00 0.00 76 1010.9
20260901140523 66 161 0.0 5.0 0.00 0.00 0.00 75 1010.8
20260901140023 66 280 1.0 3.0 0.00 0.00 0.00 77 1010.8
20260901135520 65 265 1.0 3.0 0.00 0.00 0.00 77 1010.9
20260901135019 65 261 1.0 3.0 0.00 0.00 0.00 85 1010.8
20260901134518 64 235 0.0 1.0 0.00 0.00 0.00 85 1010.9
20260901134017 63 235 0.0 1.0 0.00 0.00 0.00 84 1010.9
20260901133514 63 235 0.0 1.0 0.00 0.00 0.00 85 1010.8
20260901133013 62 171 0.0 1.0 0.00 0.00 0.00 86 1010.9
20260901132512 62 171 0.0 0.0 0.00 0.00 0.00 87 1011.0
20260901132011 61 171 0.0 1.0 0.00 0.00 0.00 87 1011.1
20260901131512 61 171 0.0 1.0 0.00 0.00 0.00 88 1011.1
20260901131010 61 171 0.0 1.0 0.00 0.00 0.00 88 1011.0
20260901130513 61 171 0.0 1.0 0.00 0.00 0.00 89 1011.1
20260901130008 61 171 0.0 0.0 0.00 0.00 0.00 89 1011.1
20260901125508 60 171 0.0 1.0 0.00 0.00 0.00 89 1011.2
20260901125008 60 171 0.0 1.0 0.00 0.00 0.00 89 1011.3
20260901124507 60 171 0.0 1.0 0.00 0.00 0.00 89 1011.2
20260901124008 60 171 0.0 0.0 0.00 0.00 0.00 89 1011.1
20260901123507 60 171 0.0 2.0 0.00 0.00 0.00 89 1011.1
20260901123006 60 171 0.0 2.0 0.00 0.00 0.00 89 1011.3
20260901122503 60 171 0.0 0.0 0.00 0.00 0.00 89 1011.2
20260901122002 60 171 0.0 0.0 0.00 0.00 0.00 89 1011.4
20260901121507 59 171 0.0 0.0 0.00 0.00 0.00 89 1011.4
20260901121002 59 171 0.0 0.0 0.00 0.00 0.00 89 1011.4
20260901120502 59 171 0.0 0.0 0.00 0.00 0.00 88 1011.4
20260901120003 59 171 0.0 1.0 0.00 0.00 0.00 89 1011.2
20260901115502 59 171 0.0 1.0 0.00 0.00 0.00 89 1011.2
20260901115004 59 171 0.0 1.0 0.00 0.00 0.00 89 1011.2
20260901114601 59 171 0.0 1.0 0.00 0.00 0.00 89 1011.3
20260901114100 59 246 0.0 0.0 0.00 0.00 0.00 89 1011.3
20260901113559 59 246 0.0 0.0 0.00 0.00 0.00 89 1011.3
20260901113104 59 246 0.0 0.0 0.00 0.00 0.00 89 1011.2
20260901112559 59 246 0.0 1.0 0.00 0.00 0.00 89 1011.1
20260901112059 59 246 0.0 1.0 0.00 0.00 0.00 89 1011.2
20260901111559 59 246 0.0 1.0 0.00 0.00 0.00 89 1011.1
20260901111059 59 189 0.0 0.0 0.00 0.00 0.00 89 1011.0
20260901110558 59 189 0.0 0.0 0.00 0.00 0.00 89 1011.0
20260901110058 59 189 0.0 0.0 0.00 0.00 0.00 88 1011.0
20260901105600 59 189 0.0 0.0 0.00 0.00 0.00 88 1011.0
20260901105101 59 189 0.0 0.0 0.00 0.00 0.00 89 1011.0
20260901104602 59 189 0.0 2.0 0.00 0.00 0.00 87 1011.0
20260901104057 59 189 0.0 2.0 0.00 0.00 0.00 87 1010.9
20260901103557 59 204 0.0 2.0 0.00 0.00 0.00 88 1011.0
20260901103056 59 183 0.0 0.0 0.00 0.00 0.00 89 1011.0
20260901102556 59 183 0.0 0.0 0.00 0.00 0.00 89 1011.0
20260901102056 59 183 0.0 0.0 0.00 0.00 0.00 89 1010.9
20260901101605 59 183 0.0 0.0 0.00 0.00 0.00 89 1010.9
20260901101055 59 183 0.0 0.0 0.00 0.00 0.00 88 1010.9
20260901100555 59 183 0.0 1.0 0.00 0.00 0.00 88 1010.8
20260901100058 59 183 0.0 1.0 0.00 0.00 0.00 88 1010.9
20260901095555 59 224 0.0 2.0 0.00 0.00 0.00 88 1011.0
20260901095055 59 224 0.0 2.0 0.00 0.00 0.00 87 1011.1
20260901094556 59 224 0.0 0.0 0.00 0.00 0.00 89 1011.0
20260901094058 58 224 0.0 0.0 0.00 0.00 0.00 89 1011.1
20260901093553 58 224 0.0 0.0 0.00 0.00 0.00 89 1011.0
20260901093058 58 224 0.0 0.0 0.00 0.00 0.00 89 1011.0
20260901092553 58 224 0.0 0.0 0.00 0.00 0.00 89 1010.9
20260901092053 58 224 0.0 0.0 0.00 0.00 0.00 89 1011.0
20260901091557 58 224 0.0 0.0 0.00 0.00 0.00 89 1010.9
20260901091053 58 224 0.0 0.0 0.00 0.00 0.00 89 1010.9
20260901090552 58 224 0.0 0.0 0.00 0.00 0.00 88 1010.8
20260901090052 58 224 0.0 0.0 0.00 0.00 0.00 88 1010.8
20260901085552 58 224 0.0 0.0 0.00 0.01 0.00 88 1010.8
20260901085051 58 224 0.0 0.0 0.00 0.01 0.00 88 1010.9
20260901084552 58 224 0.0 0.0 0.00 0.01 0.00 88 1010.8
20260901084050 58 224 0.0 1.0 0.00 0.01 0.00 88 1010.8
20260901083550 58 224 0.0 1.0 0.00 0.01 0.00 87 1011.0
20260901083050 58 224 0.0 1.0 0.00 0.01 0.00 88 1011.0
20260901082549 58 224 0.0 0.0 0.00 0.01 0.00 89 1011.0
20260901082052 58 224 0.0 0.0 0.00 0.01 0.00 88 1010.9
20260901081555 58 224 0.0 0.0 0.00 0.01 0.00 88 1010.9
20260901081048 58 224 0.0 0.0 0.00 0.01 0.00 88 1011.0
20260901080548 58 224 0.0 0.0 0.00 0.01 0.00 88 1011.0
20260901080140 58 224 0.0 0.0 0.00 0.01 0.00 88 1011.1
20260901075650 58 224 0.0 0.0 0.00 0.01 0.00 88 1011.1
20260901075048 58 224 0.0 1.0 0.00 0.01 0.00 88 1011.1
20260901074548 58 224 0.0 2.0 0.00 0.01 0.00 88 1011.0
20260901074046 58 224 0.0 2.0 0.00 0.01 0.00 88 1011.0
20260901073545 58 224 0.0 2.0 0.00 0.01 0.00 88 1010.9
20260901073045 58 132 0.0 0.0 0.00 0.01 0.00 89 1011.0
20260901072545 58 132 0.0 0.0 0.00 0.01 0.00 88 1011.1
20260901072048 58 132 0.0 0.0 0.00 0.01 0.00 89 1011.0
20260901071545 58 132 0.0 0.0 0.00 0.01 0.00 88 1011.1
20260901071043 58 132 0.0 0.0 0.00 0.01 0.00 88 1011.2
20260901070544 57 132 0.0 0.0 0.00 0.01 0.00 87 1011.2
20260901070042 57 132 0.0 0.0 0.00 0.01 0.00 87 1011.3
20260901065542 57 132 0.0 2.0 0.00 0.01 0.00 88 1011.3
20260901065045 57 132 1.0 2.0 0.00 0.01 0.00 89 1011.3
20260901064541 57 125 1.0 2.0 0.00 0.01 0.00 88 1011.4
20260901064041 57 247 0.0 2.0 0.00 0.01 0.00 88 1011.6
20260901063540 56 247 0.0 2.0 0.00 0.01 0.00 88 1011.6
20260901063054 56 175 0.0 2.0 0.00 0.01 0.00 88 1011.5
20260901062642 56 175 0.0 2.0 0.00 0.01 0.00 88 1011.5
20260901062039 56 300 0.0 2.0 0.00 0.01 0.00 88 1011.6
20260901061556 56 5 0.0 1.0 0.00 0.01 0.00 89 1011.5
20260901061038 56 5 0.0 1.0 0.00 0.01 0.00 87 1011.7
20260901060540 56 5 0.0 0.0 0.00 0.01 0.00 87 1011.7
20260901060038 57 5 0.0 1.0 0.00 0.01 0.00 88 1011.8
20260901055536 57 5 0.0 2.0 0.00 0.01 0.00 88 1011.9
20260901055037 57 50 0.0 2.0 0.00 0.01 0.00 86 1011.9
20260901054541 57 326 0.0 2.0 0.00 0.01 0.00 86 1011.8
20260901054035 57 15 0.0 2.0 0.00 0.01 0.00 86 1011.7
20260901053533 57 15 0.0 2.0 0.00 0.01 0.00 85 1011.8
20260901053036 58 15 0.0 2.0 0.00 0.01 0.00 85 1011.8
20260901052530 58 31 0.0 2.0 0.00 0.01 0.00 85 1011.8
20260901052030 58 355 0.0 2.0 0.00 0.01 0.00 84 1011.9
20260901051528 58 77 0.0 2.0 0.00 0.01 0.00 84 1011.8
20260901051031 58 77 0.0 2.0 0.00 0.01 0.00 84 1011.9
20260901050528 59 111 0.0 2.0 0.00 0.01 0.00 83 1011.9
20260901050027 59 47 0.0 1.0 0.00 0.01 0.00 82 1011.9
20260901045530 59 47 0.0 0.0 0.00 0.01 0.00 82 1011.9
20260901045026 59 47 0.0 0.0 0.00 0.01 0.00 81 1012.0
20260901044527 59 47 0.0 1.0 0.00 0.01 0.00 81 1011.9
20260901044025 59 47 0.0 1.0 0.00 0.01 0.00 81 1012.0
20260901043524 59 47 0.0 1.0 0.00 0.01 0.00 79 1012.1
20260901043031 59 47 0.0 1.0 0.00 0.01 0.00 78 1012.2
20260901042524 59 47 0.0 0.0 0.00 0.01 0.00 78 1012.2
20260901042022 59 47 0.0 1.0 0.00 0.01 0.00 80 1012.2
20260901041521 59 46 0.0 1.0 0.00 0.01 0.00 79 1012.1
20260901041025 59 47 0.0 1.0 0.00 0.01 0.00 81 1012.0
20260901040519 59 47 0.0 2.0 0.00 0.01 0.00 81 1012.1
20260901040018 59 47 0.0 2.0 0.00 0.01 0.00 82 1012.1
20260901035517 59 167 0.0 1.0 0.00 0.01 0.01 81 1012.1
20260901035017 59 167 0.0 1.0 0.00 0.01 0.01 80 1012.0
20260901034517 59 167 0.0 1.0 0.00 0.01 0.01 79 1012.0
20260901034017 59 167 0.0 2.0 0.00 0.01 0.01 80 1011.9
20260901033516 60 167 1.0 2.0 0.00 0.01 0.01 80 1012.0
20260901033020 60 167 0.0 2.0 0.00 0.01 0.01 79 1012.0
20260901032516 60 167 0.0 2.0 0.00 0.01 0.01 80 1012.0
20260901032017 60 167 0.0 2.0 0.00 0.01 0.01 81 1011.9
20260901031516 60 167 0.0 1.0 0.00 0.01 0.01 81 1011.9
20260901031016 60 167 0.0 2.0 0.00 0.01 0.01 76 1011.8
20260901030515 60 167 0.0 2.0 0.00 0.01 0.01 76 1011.9
20260901030017 60 167 0.0 2.0 0.00 0.01 0.01 75 1011.8
20260901025515 60 167 0.0 0.0 0.00 0.01 0.01 76 1011.9
20260901025015 60 167 0.0 0.0 0.00 0.01 0.01 78 1011.9
20260901024515 60 167 0.0 0.0 0.00 0.01 0.01 76 1012.0
20260901024014 60 167 0.0 0.0 0.00 0.01 0.01 76 1011.9
20260901023514 60 167 0.0 0.0 0.00 0.01 0.01 75 1012.0
20260901023017 59 167 0.0 0.0 0.00 0.01 0.01 76 1011.9
20260901022514 59 167 0.0 0.0 0.00 0.01 0.01 77 1012.0
20260901022014 59 167 0.0 0.0 0.00 0.01 0.01 78 1012.0
20260901021515 59 167 0.0 1.0 0.00 0.01 0.01 78 1011.9
20260901021013 59 167 0.0 2.0 0.00 0.01 0.01 77 1011.9
20260901020516 59 167 0.0 2.0 0.00 0.01 0.01 78 1012.1
20260901020013 59 167 0.0 2.0 0.00 0.04 0.01 79 1011.9
20260901015512 59 167 1.0 3.0 0.00 0.04 0.01 79 1012.0
20260901015012 59 164 1.0 2.0 0.00 0.04 0.01 81 1012.0
20260901014512 59 111 0.0 3.0 0.00 0.04 0.01 80 1012.1
20260901014011 59 218 0.0 3.0 0.00 0.04 0.01 80 1012.2
20260901013511 59 154 0.0 2.0 0.00 0.04 0.01 80 1012.2
20260901013011 59 192 0.0 2.0 0.00 0.04 0.01 80 1012.1
20260901012510 59 178 0.0 2.0 0.00 0.04 0.01 80 1012.1
20260901012012 59 256 0.0 2.0 0.00 0.04 0.01 80 1012.1
20260901011522 59 270 0.0 2.0 0.00 0.04 0.01 80 1012.1
20260901011011 59 154 0.0 2.0 0.00 0.04 0.01 79 1012.1
20260901010510 59 217 0.0 2.0 0.00 0.04 0.01 79 1012.2
20260901010010 59 182 0.0 1.0 0.00 0.04 0.01 79 1012.1
20260901005510 59 182 0.0 1.0 0.00 0.04 0.01 79 1012.1
20260901005009 59 145 0.0 0.0 0.00 0.04 0.01 80 1012.1
20260901004509 59 145 0.0 1.0 0.00 0.04 0.01 79 1012.1
20260901004008 60 145 0.0 1.0 0.00 0.04 0.01 79 1012.2
20260901003509 60 145 0.0 1.0 0.00 0.04 0.01 79 1012.1
20260901003008 60 145 0.0 0.0 0.00 0.04 0.01 79 1012.2
20260901002509 60 145 0.0 0.0 0.00 0.04 0.01 79 1012.1
20260901002008 60 145 0.0 0.0 0.00 0.04 0.01 78 1012.0
20260901001508 61 145 0.0 0.0 0.00 0.04 0.01 78 1012.0
20260901001008 61 145 0.0 1.0 0.00 0.04 0.01 79 1012.1
20260901000508 61 145 0.0 2.0 0.00 0.04 0.01 79 1012.1
20260901000010 62 145 0.0 2.0 0.00 0.04 0.01 79 1012.0
20260831235508 62 147 1.0 2.0 0.00 0.04 0.01 79 1012.1
20260831235010 63 256 0.0 0.0 0.00 0.04 0.01 80 1012.1
20260831234508 63 256 0.0 0.0 0.00 0.04 0.01 79 1012.1
20260831234008 63 256 0.0 0.0 0.00 0.04 0.01 79 1012.1
20260831233508 64 256 0.0 0.0 0.00 0.04 0.01 79 1012.0
20260831233008 65 256 0.0 0.0 0.00 0.04 0.01 78 1012.0
20260831232506 65 256 0.0 0.0 0.00 0.04 0.01 77 1012.0
20260831232006 66 256 0.0 0.0 0.00 0.04 0.01 76 1012.0
20260831231518 66 256 0.0 0.0 0.00 0.04 0.01 76 1012.0
20260831231008 67 256 0.0 0.0 0.00 0.04 0.01 74 1012.1
20260831230510 68 256 0.0 0.0 0.00 0.04 0.01 73 1012.1
20260831230006 68 256 0.0 0.0 0.00 0.04 0.01 72 1012.1
20260831225505 69 256 0.0 0.0 0.00 0.04 0.01 71 1012.1
20260831225005 70 256 0.0 0.0 0.00 0.04 0.01 69 1012.1
20260831224515 71 256 0.0 0.0 0.00 0.04 0.01 69 1012.1
20260831224008 72 256 0.0 0.0 0.00 0.04 0.01 66 1012.1
20260831223504 73 256 0.0 0.0 0.00 0.04 0.01 64 1012.1
20260831223004 74 256 0.0 0.0 0.00 0.04 0.01 61 1012.2
20260831222504 76 256 0.0 0.0 0.00 0.04 0.01 56 1012.2
20260831222003 77 256 0.0 0.0 0.00 0.04 0.01 55 1012.2
20260831221504 78 256 0.0 0.0 0.00 0.04 0.01 51 1012.2
20260831221003 79 256 0.0 0.0 0.00 0.04 0.01 51 1012.1
20260831220503 80 256 0.0 1.0 0.00 0.04 0.01 50 1012.3
20260831220003 80 256 0.0 1.0 0.00 0.04 0.01 50 1012.3
20260831215502 80 256 0.0 1.0 0.00 0.04 0.01 50 1012.2
20260831215002 80 256 0.0 2.0 0.00 0.04 0.01 49 1012.2
20260831214503 80 248 0.0 2.0 0.00 0.04 0.01 48 1012.3
20260831214003 80 240 0.0 1.0 0.00 0.04 0.01 48 1012.3
20260831213600 79 241 0.0 2.0 0.00 0.04 0.01 46 1012.3
20260831213502 79 226 0.0 2.0 0.00 0.04 0.01 47 1012.3
20260831213100 79 315 0.0 2.0 0.00 0.04 0.01 50 1012.1
20260831212602 79 281 1.0 3.0 0.00 0.04 0.01 48 1012.3
20260831212102 79 275 0.0 3.0 0.00 0.04 0.01 50 1012.2